Tillbaka till svenska Fidonet
English   Information   Debug  
FILM   0/18
FNEWS_PUBLISH   4990
FN_SYSOP   42232
FN_SYSOP_OLD1   71952
FTP_FIDO   0/2
FTSC_PUBLIC   0/13977
FUNNY   0/4886
GENEALOGY.EUR   0/71
GET_INFO   105
GOLDED   0/408
HAM   0/16732
HOLYSMOKE   0/6791
HOT_SITES   0/1
HTMLEDIT   0/71
HUB203   466
HUB_100   264
HUB_400   39
HUMOR   0/29
IC   0/2851
INTERNET   0/424
INTERUSER   0/3
IP_CONNECT   719
JAMNNTPD   0/233
JAMTLAND   0/47
KATTY_KORNER   0/41
LAN   0/16
LINUX-USER   0/19
LINUXHELP   0/1155
LINUX   0/22397
LINUX_BBS   0/957
mail   18.68
mail_fore_ok   249
MENSA   0/341
MODERATOR   0/102
MONTE   0/992
MOSCOW_OKLAHOMA   0/1245
MUFFIN   0/783
MUSIC   0/321
N203_STAT   938
N203_SYSCHAT   313
NET203   321
NET204   69
NET_DEV   0/10
NORD.ADMIN   0/101
NORD.CHAT   0/2572
NORD.FIDONET   189
NORD.HARDWARE   0/28
NORD.KULTUR   0/114
NORD.PROG   0/32
NORD.SOFTWARE   0/88
NORD.TEKNIK   0/58
NORD   0/453
OCCULT_CHAT   0/93
OS2BBS   0/787
OS2DOSBBS   0/580
OS2HW   0/42
OS2INET   0/37
OS2LAN   0/134
OS2PROG   0/36
OS2REXX   0/113
OS2USER-L   207
OS2   0/4831
OSDEBATE   0/18996
PASCAL   0/490
PERL   0/457
PHP   0/45
POINTS   0/405
POLITICS   0/29554
POL_INC   0/14731
PSION   103
R20_ADMIN   1133
R20_AMATORRADIO   0/2
R20_BEST_OF_FIDONET   16
R20_CHAT   0/897
R20_DEPP   0/3
R20_DEV   400
R20_ECHO2   1894
R20_ECHOPRES   0/35
R20_ESTAT   0/719
R20_FIDONETPROG...
...RAM.MYPOINT
  0/2
R20_FIDONETPROGRAM   0/22
R20_FIDONET   0/248
R20_FILEFIND   0/24
R20_FILEFOUND   0/22
R20_HIFI   0/3
R20_INFO2   3786
R20_INTERNET   0/12940
R20_INTRESSE   0/60
R20_INTR_KOM   0/99
R20_KANDIDAT.CHAT   42
R20_KANDIDAT   28
R20_KOM_DEV   112
R20_KONTROLL   0/13360
R20_KORSET   0/18
R20_LOKALTRAFIK   0/24
R20_MODERATOR   0/1852
R20_NC   76
R20_NET200   245
R20_NETWORK.OTH...
...ERNETS
  0/13
R20_OPERATIVSYS...
...TEM.LINUX
  0/44
R20_PROGRAMVAROR   0/1
R20_REC2NEC   534
R20_SFOSM   0/341
R20_SF   0/108
R20_SPRAK.ENGLISH   0/1
R20_SQUISH   107
R20_TEST   2
R20_WORST_OF_FIDONET   20
RAR   0/9
RA_MULTI   106
RA_UTIL   0/162
REGCON.EUR   0/2069
REGCON   0/13
SCIENCE   0/1206
SF   0/239
SHAREWARE_SUPPORT   0/5146
SHAREWRE   0/14
SIMPSONS   0/169
STATS_OLD1   0/2539.065
STATS_OLD2   0/2530
STATS_OLD3   0/2395.095
STATS_OLD4   0/1692.25
SURVIVOR   0/495
SYSOPS_CORNER   0/3
SYSOP   0/84
TAGLINES   0/112
TEAMOS2   0/4530
TECH   0/2617
TEST.444   0/105
TRAPDOOR   0/19
TREK   0/755
TUB   0/290
UFO   0/40
UNIX   0/1316
USA_EURLINK   0/102
USR_MODEMS   0/1
VATICAN   0/2740
VIETNAM_VETS   0/14
VIRUS   0/378
VIRUS_INFO   0/201
VISUAL_BASIC   0/473
WHITEHOUSE   0/5187
WIN2000   0/101
WIN32   0/30
WIN95   0/4291
WIN95_OLD1   0/70272
WINDOWS   0/1517
WWB_SYSOP   0/419
WWB_TECH   0/810
ZCC-PUBLIC   0/1
ZEC   4

 
4DOS   0/134
ABORTION   0/7
ALASKA_CHAT   0/506
ALLFIX_FILE   0/1313
ALLFIX_FILE_OLD1   0/7997
ALT_DOS   0/152
AMATEUR_RADIO   0/1039
AMIGASALE   0/14
AMIGA   0/331
AMIGA_INT   0/1
AMIGA_PROG   0/20
AMIGA_SYSOP   0/26
ANIME   0/15
ARGUS   0/924
ASCII_ART   0/340
ASIAN_LINK   0/651
ASTRONOMY   0/417
AUDIO   0/92
AUTOMOBILE_RACING   0/105
BABYLON5   0/17862
BAG   135
BATPOWER   0/361
BBBS.ENGLISH   0/382
BBSLAW   0/109
BBS_ADS   0/5290
BBS_INTERNET   0/507
BIBLE   0/3563
BINKD   0/1119
BINKLEY   0/215
BLUEWAVE   0/2173
CABLE_MODEMS   0/25
CBM   0/46
CDRECORD   0/66
CDROM   0/20
CLASSIC_COMPUTER   0/378
COMICS   0/15
CONSPRCY   0/899
COOKING   42055
COOKING_OLD1   0/24719
COOKING_OLD2   0/40862
COOKING_OLD3   0/37489
COOKING_OLD4   0/35496
COOKING_OLD5   9370
C_ECHO   0/189
C_PLUSPLUS   0/31
DIRTY_DOZEN   0/201
DOORGAMES   0/2333
DOS_INTERNET   0/196
duplikat   6102
ECHOLIST   0/18295
EC_SUPPORT   0/318
ELECTRONICS   0/359
ELEKTRONIK.GER   1534
ENET.LINGUISTIC   0/13
ENET.POLITICS   0/4
ENET.SOFT   0/11701
ENET.SYSOP   34336
ENET.TALKS   0/32
ENGLISH_TUTOR   0/2000
EVOLUTION   0/1335
FDECHO   0/217
FDN_ANNOUNCE   0/7068
FIDONEWS   25129
FIDONEWS_OLD1   0/49742
FIDONEWS_OLD2   0/35949
FIDONEWS_OLD3   0/30874
FIDONEWS_OLD4   0/37224
FIDO_SYSOP   12973
FIDO_UTIL   0/180
FILEFIND   0/209
FILEGATE   0/212
Möte HAM, 16732 texter
 lista första sista föregående nästa
Text 3849, 880 rader
Skriven 2010-08-05 23:00:18 av Amsat List (1:323/120.0)
Ärende: [keps]  orb10217.amsa
=============================
[keps]  orb10217.amsa

Return-Path: <keps-bounces@amsat.org>
X-Rcpt: craig.healy@chowda.com
X-UIDL: 1281063360.8980

SB KEPS @ AMSAT  $ORB10217.O
Orbital Elements  10217.OSCAR

HR AMSAT ORBITAL ELEMENTS FOR OSCAR SATELLITES
FROM WA5QGD FORT WORTH,TX August 5, 2010
Send Subscribe/unsubscribe to KEPS at http://www.amsat.org/mailman/listinfo/kep
BID: ORB10217.O
TO ALL RADIO AMATEURS BT

Satellite: AO-07
Catalog number: 07530
Epoch time:      10216.56525575
Element set:    0846
Inclination:      101.4002 deg
RA of node:       230.5540 deg
Eccentricity:    0.0011670
Arg of perigee:   178.3849 deg
Mean anomaly:     181.7261 deg
Mean motion:   12.53579141 rev/day
Decay rate:       -2.7e-07 rev/day^2
Epoch rev:           63451
Checksum:              276

Satellite: FO-29
Catalog number: 24278
Epoch time:      10216.91259478
Element set:    0376
Inclination:      098.5150 deg
RA of node:       039.3056 deg
Eccentricity:    0.0351071
Arg of perigee:   357.6125 deg
Mean anomaly:     002.3329 deg
Mean motion:   13.52951218 rev/day
Decay rate:       -6.0e-07 rev/day^2
Epoch rev:           68969
Checksum:              317

Satellite: SO-33
Catalog number: 25509
Epoch time:      10216.41595598
Element set:    0767
Inclination:      031.4334 deg
RA of node:       235.7808 deg
Eccentricity:    0.0353431
Arg of perigee:   351.5213 deg
Mean anomaly:     007.9564 deg
Mean motion:   14.28319169 rev/day
Decay rate:       1.33e-06 rev/day^2
Epoch rev:           61495
Checksum:              310

Satellite: RS-22
Catalog number: 27939
Epoch time:      10217.62626113
Element set:     425
Inclination:      097.8863 deg
RA of node:       080.9992 deg
Eccentricity:    0.0012439
Arg of perigee:   264.2348 deg
Mean anomaly:     095.7437 deg
Mean motion:   14.63439290 rev/day
Decay rate:       1.35e-06 rev/day^2
Epoch rev:           36618
Checksum:              328

Satellite: VO-52
Catalog number: 28650
Epoch time:      10216.82123942
Element set:    0569
Inclination:      097.6890 deg
RA of node:       268.3498 deg
Eccentricity:    0.0028173
Arg of perigee:   116.3817 deg
Mean anomaly:     244.0291 deg
Mean motion:   14.81780459 rev/day
Decay rate:      -1.29e-06 rev/day^2
Epoch rev:           28389
Checksum:              338

Satellite: SO-67
Catalog number: 35870
Epoch time:      10217.73005558
Element set:     981
Inclination:      097.3279 deg
RA of node:       265.5463 deg
Eccentricity:    0.0001595
Arg of perigee:   308.3293 deg
Mean anomaly:     188.1917 deg
Mean motion:   15.20983042 rev/day
Decay rate:       7.44e-06 rev/day^2
Epoch rev:            4898
Checksum:              337

Satellite: HO-68
Catalog number: 36122
Epoch time:      10217.65342175
Element set:     551
Inclination:      100.4654 deg
RA of node:       277.5742 deg
Eccentricity:    0.0007191
Arg of perigee:   222.8589 deg
Mean anomaly:     137.1969 deg
Mean motion:   13.16281501 rev/day
Decay rate:       -4.5e-07 rev/day^2
Epoch rev:            3072
Checksum:              288

/EX
SB KEPS @ AMSAT  $ORB10217.D
Orbital Elements  10217.MICROS

HR AMSAT ORBITAL ELEMENTS FOR THE MICROSATS
FROM WA5QGD FORT WORTH,TX August 5, 2010
Send Subscribe/unsubscribe to KEPS at http://www.amsat.org/mailman/listinfo/kep
BID: ORB10217.D
TO ALL RADIO AMATEURS BT

Satellite: UO-11
Catalog number: 14781
Epoch time:      10216.30089369
Element set:    0306
Inclination:      098.0525 deg
RA of node:       268.1796 deg
Eccentricity:    0.0010250
Arg of perigee:   084.3580 deg
Mean anomaly:     275.8803 deg
Mean motion:   14.79819829 rev/day
Decay rate:      -1.27e-06 rev/day^2
Epoch rev:           41892
Checksum:              320

Satellite: AO-16
Catalog number: 20439
Epoch time:      10217.73326424
Element set:     962
Inclination:      098.3360 deg
RA of node:       173.6992 deg
Eccentricity:    0.0011587
Arg of perigee:   024.1339 deg
Mean anomaly:     336.0386 deg
Mean motion:   14.31869072 rev/day
Decay rate:        2.9e-07 rev/day^2
Epoch rev:            7247
Checksum:              306

Satellite: LO-19
Catalog number: 20442
Epoch time:      10217.44356410
Element set:     871
Inclination:      098.2976 deg
RA of node:       179.0229 deg
Eccentricity:    0.0012298
Arg of perigee:   019.5319 deg
Mean anomaly:     340.6321 deg
Mean motion:   14.32099479 rev/day
Decay rate:        2.9e-07 rev/day^2
Epoch rev:            7260
Checksum:              301

Satellite: AO-27
Catalog number: 22825
Epoch time:      10217.71618768
Element set:     594
Inclination:      098.4879 deg
RA of node:       164.3922 deg
Eccentricity:    0.0009099
Arg of perigee:   119.6257 deg
Mean anomaly:     240.5821 deg
Mean motion:   14.29304075 rev/day
Decay rate:        8.5e-07 rev/day^2
Epoch rev:           87912
Checksum:              339

Satellite: IO-26
Catalog number: 22826
Epoch time:      10217.77277736
Element set:     331
Inclination:      098.4819 deg
RA of node:       165.0300 deg
Eccentricity:    0.0009742
Arg of perigee:   115.1056 deg
Mean anomaly:     245.1144 deg
Mean motion:   14.29560499 rev/day
Decay rate:        1.3e-07 rev/day^2
Epoch rev:           87924
Checksum:              302

Satellite: GO-32
Catalog number: 25397
Epoch time:      10217.73648260
Element set:     251
Inclination:      098.3140 deg
RA of node:       222.4598 deg
Eccentricity:    0.0002244
Arg of perigee:   109.5153 deg
Mean anomaly:     250.6237 deg
Mean motion:   14.23181688 rev/day
Decay rate:       -8.8e-07 rev/day^2
Epoch rev:           62709
Checksum:              298

